TimeMDT,TemperatureF,Dew PointF,Humidity,Sea Level PressureIn,VisibilityMPH,Wind Direction,Wind SpeedMPH,Gust SpeedMPH,PrecipitationIn,Events,Conditions,WindDirDegrees,DateUTC
12:53 AM,48.0,30.0,50,29.94,10.0,SSW,6.9,-,N/A,,Clear,200,2012-10-15 06:53:00
1:53 AM,46.0,30.9,56,29.92,10.0,SSW,10.4,-,N/A,,Clear,210,2012-10-15 07:53:00
2:53 AM,50.0,28.9,44,29.89,10.0,South,5.8,-,N/A,,Clear,170,2012-10-15 08:53:00
3:53 AM,46.9,30.0,52,29.88,10.0,SSW,4.6,-,N/A,,Clear,200,2012-10-15 09:53:00
4:53 AM,48.0,30.9,52,29.86,10.0,SW,12.7,-,N/A,,Partly Cloudy,220,2012-10-15 10:53:00
5:53 AM,46.9,30.9,54,29.85,10.0,SW,9.2,-,N/A,,Partly Cloudy,230,2012-10-15 11:53:00
6:53 AM,51.1,32.0,48,29.83,10.0,SSW,12.7,-,N/A,,Clear,210,2012-10-15 12:53:00
7:53 AM,50.0,32.0,50,29.84,10.0,West,6.9,-,N/A,,Mostly Cloudy,260,2012-10-15 13:53:00
8:53 AM,51.1,33.1,50,29.86,10.0,WSW,5.8,-,N/A,,Overcast,240,2012-10-15 14:53:00
9:53 AM,54.0,33.1,45,29.87,10.0,SSW,12.7,-,N/A,,Overcast,210,2012-10-15 15:53:00
10:53 AM,57.9,34.0,41,29.88,10.0,WSW,15.0,18.4,N/A,,Overcast,250,2012-10-15 16:53:00
11:53 AM,55.9,35.1,45,29.89,10.0,SW,27.6,35.7,N/A,,Overcast,230,2012-10-15 17:53:00
12:53 PM,57.9,37.0,46,29.90,10.0,WSW,17.3,-,N/A,,Overcast,240,2012-10-15 18:53:00
1:53 PM,57.9,37.0,46,29.88,10.0,WSW,8.1,-,N/A,,Mostly Cloudy,250,2012-10-15 19:53:00
2:53 PM,63.0,37.0,38,29.86,9.0,WSW,15.0,-,0.00,,Overcast,240,2012-10-15 20:53:00
3:53 PM,60.1,36.0,41,29.87,10.0,WSW,24.2,32.2,N/A,,Mostly Cloudy,250,2012-10-15 21:53:00
4:53 PM,57.9,35.1,42,29.87,10.0,West,18.4,29.9,N/A,,Clear,260,2012-10-15 22:53:00
5:53 PM,57.9,35.1,42,29.88,10.0,West,16.1,27.6,N/A,,Scattered Clouds,260,2012-10-15 23:53:00
6:53 PM,54.0,36.0,51,29.87,10.0,WSW,11.5,-,N/A,,Mostly Cloudy,240,2012-10-16 00:53:00
7:53 PM,52.0,37.0,57,29.89,10.0,WSW,11.5,-,N/A,,Mostly Cloudy,250,2012-10-16 01:53:00
8:53 PM,48.9,36.0,61,29.90,10.0,SSE,8.1,-,N/A,,Clear,160,2012-10-16 02:53:00
9:53 PM,46.9,35.1,63,29.86,10.0,South,5.8,-,N/A,,Clear,180,2012-10-16 03:53:00
10:53 PM,45.0,35.1,68,29.84,10.0,WSW,3.5,-,N/A,,Clear,240,2012-10-16 04:53:00
11:53 PM,46.0,35.1,66,29.82,10.0,SSW,6.9,-,N/A,,Mostly Cloudy,200,2012-10-16 05:53:00